GW5308 Weather Reports


time (UTC)temp
F
wind
direction
speed
knots
gust
knots
rain 1hr
in
rain 24hr
in
rain mn
in
humidity
%
barometer
mb
20260831033042 76 0 0.0 0.0 0.00 0.05 0.05 100 1016.2
20260831032517 76 0 0.0 0.0 0.00 0.05 0.05 100 1016.3
20260831032018 76 0 0.0 0.0 0.00 0.05 0.05 100 1016.2
20260831031537 76 0 0.0 0.0 0.00 0.05 0.05 100 1016.4
20260831031027 76 0 0.0 0.0 0.00 0.05 0.05 100 1016.5
20260831030518 76 0 0.0 0.0 0.00 0.05 0.05 100 1016.5
20260831030048 76 0 0.0 0.0 0.00 0.05 0.05 100 1016.4
20260831025528 77 0 0.0 0.0 0.00 0.05 0.05 100 1016.4
20260831025020 77 0 0.0 0.0 0.00 0.05 0.05 100 1016.4
20260831024536 77 0 0.0 0.0 0.00 0.05 0.05 100 1016.4
20260831024019 77 0 0.0 0.0 0.00 0.05 0.05 100 1016.5
20260831023522 77 0 0.0 0.0 0.00 0.05 0.05 100 1016.4
20260831023041 77 0 0.0 0.0 0.00 0.05 0.05 100 1016.4
20260831022526 77 0 0.0 0.0 0.00 0.05 0.05 100 1016.5
20260831022020 77 0 0.0 0.0 0.00 0.05 0.05 100 1016.6
20260831021536 77 0 0.0 0.0 0.00 0.05 0.05 100 1016.6
20260831021020 78 0 0.0 0.0 0.00 0.05 0.05 100 1016.4
20260831020520 78 0 0.0 0.0 0.00 0.05 0.05 100 1016.4
20260831020038 78 0 0.0 0.0 0.00 0.05 0.05 99 1016.6
20260831015520 78 0 0.0 0.0 0.00 0.05 0.05 99 1016.5
20260831015019 78 0 0.0 0.0 0.00 0.05 0.05 99 1016.6
20260831014545 78 0 0.0 0.0 0.00 0.05 0.05 99 1016.5
20260831014020 78 0 0.0 0.0 0.00 0.05 0.05 99 1016.5
20260831013520 78 0 0.0 0.0 0.00 0.05 0.05 99 1016.6
20260831013042 78 0 0.0 0.0 0.00 0.05 0.05 99 1016.6
20260831012521 78 0 0.0 0.0 0.00 0.05 0.05 98 1016.6
20260831012020 79 0 0.0 0.0 0.00 0.05 0.05 98 1016.6
20260831011542 79 0 0.0 0.0 0.00 0.05 0.05 98 1016.7
20260831011020 79 0 0.0 0.0 0.00 0.05 0.05 98 1016.7
20260831010522 79 0 0.0 0.0 0.00 0.05 0.05 98 1016.6
20260831010041 79 0 0.0 0.0 0.00 0.05 0.05 98 1016.6
20260831005519 79 0 0.0 0.0 0.00 0.05 0.05 97 1016.6
20260831005019 79 0 0.0 0.0 0.00 0.05 0.05 97 1016.5
20260831004545 80 0 0.0 0.0 0.00 0.05 0.05 96 1016.5
20260831004024 80 0 0.0 0.0 0.00 0.05 0.05 96 1016.5
20260831003523 80 0 0.0 0.0 0.00 0.05 0.05 96 1016.4
20260831003043 80 0 0.0 0.0 0.00 0.05 0.05 96 1016.3
20260831002520 80 0 0.0 0.0 0.00 0.05 0.05 95 1016.2
20260831002020 81 0 0.0 0.0 0.00 0.05 0.05 95 1016.2
20260831001541 81 0 0.0 0.9 0.00 0.05 0.05 94 1016.2
20260831001020 81 0 0.0 1.7 0.00 0.05 0.05 94 1016.1
20260831000520 81 0 0.0 1.7 0.00 0.05 0.05 94 1016.0
20260831000054 81 0 0.0 0.0 0.00 0.05 0.05 94 1016.0
20260830235518 81 0 0.0 0.0 0.00 0.05 0.05 94 1015.9
20260830235019 81 0 0.0 0.0 0.00 0.05 0.05 93 1015.9
20260830234547 81 0 0.0 0.9 0.00 0.05 0.05 93 1016.0
20260830234024 82 0 0.0 0.9 0.00 0.05 0.05 92 1015.9
20260830233521 82 0 0.0 0.9 0.00 0.05 0.05 92 1015.9
20260830233054 82 0 0.0 0.9 0.00 0.05 0.05 92 1016.0
20260830232520 82 0 0.0 0.9 0.00 0.05 0.05 92 1016.0
20260830232020 82 0 0.0 0.9 0.00 0.05 0.05 91 1016.1
20260830231541 82 0 0.0 0.9 0.00 0.05 0.05 91 1016.0
20260830231021 82 345 0.0 0.0 0.00 0.05 0.05 91 1016.0
20260830230519 83 0 0.0 0.0 0.00 0.05 0.05 91 1016.0
20260830230041 83 0 0.0 0.0 0.00 0.05 0.05 91 1016.0
20260830225519 83 0 0.0 0.0 0.00 0.05 0.05 90 1016.1
20260830225031 83 0 0.0 0.9 0.00 0.05 0.05 90 1016.0
20260830224545 83 0 0.0 3.5 0.00 0.05 0.05 90 1016.1
20260830224021 83 305 0.0 3.5 0.00 0.05 0.05 89 1016.0
20260830223521 83 340 0.0 2.6 0.00 0.05 0.05 89 1015.9
20260830223037 84 18 0.0 2.6 0.00 0.05 0.05 88 1015.9
20260830222519 84 0 0.0 5.2 0.00 0.05 0.05 88 1015.7
20260830222021 84 0 0.0 5.2 0.00 0.05 0.05 87 1015.7
20260830221538 84 15 0.9 5.2 0.00 0.05 0.05 87 1015.6
20260830221021 85 8 0.0 0.9 0.00 0.05 0.05 87 1015.6
20260830220519 85 0 0.0 1.7 0.00 0.05 0.05 86 1015.7
20260830220057 85 311 0.0 3.5 0.00 0.05 0.05 86 1015.6
20260830215521 85 0 0.0 4.3 0.00 0.05 0.05 85 1015.5
20260830215022 85 0 0.0 4.3 0.00 0.05 0.05 84 1015.5
20260830214537 86 358 0.0 4.3 0.00 0.05 0.05 84 1015.4
20260830214020 86 8 0.9 4.3 0.00 0.05 0.05 84 1015.3
20260830213520 86 18 0.0 2.6 0.00 0.05 0.05 83 1015.3
20260830213041 86 359 0.0 2.6 0.00 0.05 0.05 82 1015.3
20260830212520 86 285 0.0 3.5 0.00 0.05 0.05 82 1015.3
20260830212019 86 352 0.9 3.5 0.00 0.05 0.05 83 1015.2
20260830211542 86 16 0.0 4.3 0.00 0.05 0.05 82 1015.3
20260830211020 86 21 0.9 4.3 0.00 0.05 0.05 83 1015.4
20260830210520 87 333 1.7 6.1 0.00 0.05 0.05 82 1015.4
20260830210037 87 67 1.7 6.1 0.00 0.05 0.05 82 1015.5
20260830205523 87 337 1.7 6.1 0.00 0.05 0.05 81 1015.5
20260830205019 87 48 1.7 4.3 0.00 0.05 0.05 80 1015.5
20260830204552 88 359 1.7 4.3 0.00 0.05 0.05 79 1015.5
20260830204019 88 328 1.7 3.5 0.00 0.05 0.05 79 1015.4
20260830203518 88 357 0.9 7.0 0.00 0.05 0.05 78 1015.4
20260830203038 89 15 0.9 7.0 0.00 0.05 0.05 78 1015.4
20260830202520 89 51 1.7 4.3 0.00 0.05 0.05 77 1015.3
20260830202020 89 357 0.9 6.1 0.00 0.05 0.05 77 1015.4
20260830201546 89 347 1.7 6.1 0.00 0.05 0.05 76 1015.5
20260830201020 90 153 0.9 4.3 0.00 0.05 0.05 76 1015.6
20260830200519 91 103 0.9 6.1 0.00 0.05 0.05 73 1015.5
20260830200043 92 312 1.7 6.1 0.00 0.05 0.05 72 1015.6
20260830195519 92 16 0.0 4.3 0.00 0.06 0.05 74 1015.6
20260830195021 91 96 0.9 7.0 0.00 0.06 0.05 73 1015.6
20260830194542 91 15 0.0 7.0 0.00 0.06 0.05 75 1015.6
20260830194018 91 10 1.7 3.5 0.00 0.06 0.05 74 1015.8
20260830193518 90 98 0.9 2.6 0.00 0.06 0.05 74 1015.8
20260830193042 90 93 0.9 5.2 0.00 0.06 0.05 74 1015.8
20260830192520 91 356 1.7 5.2 0.00 0.06 0.05 73 1015.8
20260830192021 91 116 0.9 3.5 0.00 0.06 0.05 77 1015.8
20260830191614 91 347 0.9 6.1 0.00 0.06 0.05 72 1015.9
20260830191019 91 287 1.7 6.1 0.00 0.06 0.05 75 1016.0
20260830190521 91 0 0.0 4.3 0.00 0.06 0.05 74 1015.9
20260830190054 90 291 1.7 5.2 0.00 0.06 0.05 75 1016.0
20260830185521 89 310 0.9 5.2 0.00 0.07 0.05 77 1015.9
20260830185020 89 0 0.9 3.5 0.00 0.07 0.05 80 1016.0
20260830184541 89 283 0.9 3.5 0.02 0.07 0.05 81 1016.1
20260830184023 89 20 0.9 3.5 0.05 0.07 0.05 82 1016.3
20260830183521 87 0 0.0 0.9 0.05 0.07 0.05 85 1016.4
20260830183041 86 0 0.0 1.7 0.05 0.07 0.05 87 1016.3
20260830182524 85 335 0.0 3.5 0.05 0.07 0.05 87 1016.4
20260830182021 85 0 0.0 3.5 0.05 0.07 0.05 87 1016.5
20260830181543 85 0 0.0 1.7 0.05 0.07 0.05 92 1016.4
20260830181021 85 0 0.0 0.0 0.05 0.07 0.05 94 1016.3
20260830180518 85 0 0.0 0.0 0.05 0.07 0.05 95 1016.5
20260830180044 85 0 0.0 0.9 0.05 0.07 0.05 95 1016.7
20260830175519 85 0 0.0 4.3 0.05 0.07 0.05 93 1016.7
20260830175023 86 39 0.0 4.3 0.05 0.07 0.05 88 1016.9
20260830174545 88 12 1.7 7.0 0.03 0.05 0.03 81 1017.0
20260830174027 90 30 2.6 7.0 0.00 0.02 0.00 78 1017.0
20260830173521 91 240 0.9 5.2 0.00 0.02 0.00 76 1016.9
20260830173047 91 109 0.0 5.2 0.00 0.02 0.00 78 1017.1
20260830172527 90 4 0.9 5.2 0.00 0.02 0.00 77 1017.2
20260830172025 89 279 0.9 5.2 0.00 0.02 0.00 77 1017.3
20260830171541 90 35 1.7 5.2 0.00 0.02 0.00 76 1017.3
20260830171021 91 296 0.0 3.5 0.00 0.02 0.00 75 1017.4
20260830170522 91 322 0.9 3.5 0.00 0.02 0.00 74 1017.5
20260830170042 91 25 0.9 3.5 0.00 0.02 0.00 76 1017.6
20260830165521 91 0 0.0 3.5 0.00 0.02 0.00 77 1017.6
20260830165026 90 8 0.9 3.5 0.00 0.02 0.00 75 1017.7
20260830164540 90 0 0.0 1.7 0.00 0.02 0.00 77 1017.7
20260830164023 90 0 0.0 1.7 0.00 0.02 0.00 75 1017.7
20260830163520 90 8 0.0 3.5 0.00 0.02 0.00 77 1017.7
20260830163042 89 0 0.0 3.5 0.00 0.02 0.00 81 1017.7
20260830162521 89 0 0.0 2.6 0.00 0.02 0.00 81 1017.8
20260830162021 89 355 0.9 2.6 0.00 0.02 0.00 80 1017.7
20260830161543 89 314 0.0 3.5 0.00 0.02 0.00 80 1017.7
20260830161024 89 326 0.9 3.5 0.00 0.02 0.00 78 1017.7
20260830160518 89 0 0.0 2.6 0.00 0.02 0.00 80 1017.7
20260830160043 89 0 0.0 2.6 0.00 0.02 0.00 79 1017.7
20260830155521 89 0 0.0 2.6 0.00 0.02 0.00 79 1017.7
20260830155023 89 9 0.0 0.9 0.00 0.02 0.00 82 1017.7
20260830154538 88 0 0.0 1.7 0.00 0.02 0.00 81 1017.8
20260830154019 88 0 0.0 2.6 0.00 0.02 0.00 82 1017.9
20260830153519 87 0 0.0 2.6 0.00 0.02 0.00 83 1017.9
20260830153041 87 0 0.0 3.5 0.00 0.02 0.00 84 1018.1
20260830152523 87 0 0.0 3.5 0.00 0.02 0.00 82 1018.1
20260830152020 87 345 1.7 3.5 0.00 0.02 0.00 83 1018.2
20260830151541 87 0 0.0 1.7 0.00 0.02 0.00 84 1018.1
20260830151022 87 318 0.9 1.7 0.00 0.02 0.00 81 1018.1
20260830150520 87 0 0.0 3.5 0.00 0.02 0.00 83 1018.2
20260830150044 87 0 0.0 3.5 0.00 0.02 0.00 84 1018.2
20260830145522 87 326 0.9 3.5 0.00 0.02 0.00 83 1018.1
20260830145020 86 0 0.0 1.7 0.00 0.02 0.00 86 1018.2
20260830144544 86 0 0.0 3.5 0.00 0.02 0.00 85 1018.3
20260830144023 85 343 0.0 3.5 0.00 0.02 0.00 87 1018.2
20260830143524 85 4 0.0 2.6 0.00 0.02 0.00 86 1018.3
20260830143043 85 0 0.0 2.6 0.00 0.02 0.00 85 1018.1
20260830142519 85 340 0.0 2.6 0.00 0.02 0.00 84 1018.2
20260830142020 85 7 0.9 2.6 0.00 0.02 0.00 84 1018.3
20260830141541 86 0 0.0 1.7 0.00 0.02 0.00 86 1018.3
20260830141024 86 0 0.0 1.7 0.00 0.02 0.00 84 1018.3
20260830140519 85 0 0.0 1.7 0.00 0.02 0.00 85 1018.3
20260830140041 85 0 0.0 1.7 0.00 0.02 0.00 84 1018.3
20260830135521 85 0 0.0 3.5 0.00 0.02 0.00 87 1018.2
20260830135019 85 0 0.0 3.5 0.00 0.02 0.00 88 1018.2
20260830134539 84 0 0.0 0.9 0.00 0.02 0.00 88 1018.2
20260830134023 84 0 0.0 0.9 0.00 0.02 0.00 89 1018.2
20260830133520 83 0 0.0 0.9 0.00 0.02 0.00 90 1018.2
20260830133054 83 0 0.0 0.9 0.00 0.02 0.00 92 1018.1
20260830132519 82 0 0.0 0.0 0.00 0.02 0.00 94 1018.2
20260830132030 82 0 0.0 0.0 0.00 0.02 0.00 94 1018.2
20260830131550 81 0 0.0 0.0 0.00 0.02 0.00 98 1018.2
20260830131020 80 0 0.0 0.0 0.00 0.02 0.00 99 1018.2
20260830130520 79 0 0.0 0.0 0.00 0.02 0.00 100 1018.2
20260830130049 78 0 0.0 0.0 0.00 0.02 0.00 100 1018.1
20260830125520 78 0 0.0 0.9 0.00 0.02 0.00 100 1018.0
20260830125022 77 0 0.0 0.9 0.00 0.02 0.00 100 1018.1
20260830124539 76 0 0.0 0.9 0.00 0.02 0.00 100 1017.9
20260830124017 76 0 0.0 0.9 0.00 0.02 0.00 100 1017.8
20260830123519 76 0 0.0 0.0 0.00 0.02 0.00 100 1017.8
20260830123038 75 0 0.0 0.0 0.00 0.02 0.00 100 1017.8
20260830122524 75 0 0.0 0.0 0.00 0.02 0.00 100 1017.7
20260830122023 74 0 0.0 0.0 0.00 0.02 0.00 100 1017.6
20260830121541 74 0 0.0 0.0 0.00 0.02 0.00 100 1017.6
20260830121021 73 0 0.0 0.0 0.00 0.02 0.00 100 1017.6
20260830120519 73 0 0.0 0.0 0.00 0.02 0.00 100 1017.6
20260830120045 73 0 0.0 0.0 0.00 0.02 0.00 100 1017.5
20260830115519 72 0 0.0 0.0 0.00 0.02 0.00 100 1017.4
20260830115019 72 0 0.0 0.0 0.00 0.02 0.00 100 1017.4
20260830114537 72 0 0.0 0.0 0.00 0.02 0.00 100 1017.2
20260830114019 72 0 0.0 0.0 0.00 0.02 0.00 100 1017.1
20260830113518 71 0 0.0 0.0 0.00 0.02 0.00 100 1017.1
20260830113036 71 0 0.0 0.0 0.00 0.02 0.00 100 1017.1
20260830112519 71 0 0.0 0.0 0.00 0.02 0.00 100 1017.0
20260830112021 71 0 0.0 0.0 0.00 0.02 0.00 100 1016.9
20260830111541 71 0 0.0 0.0 0.00 0.02 0.00 100 1016.7
20260830111020 71 0 0.0 0.0 0.00 0.02 0.00 100 1016.7
20260830110520 71 0 0.0 0.0 0.00 0.02 0.00 100 1016.7
20260830110038 71 0 0.0 0.0 0.00 0.02 0.00 100 1016.7
20260830105519 71 0 0.0 0.0 0.00 0.02 0.00 100 1016.7
20260830105020 71 0 0.0 0.0 0.00 0.02 0.00 100 1016.5
20260830104536 71 0 0.0 0.0 0.00 0.02 0.00 100 1016.4
20260830104018 71 0 0.0 0.0 0.00 0.02 0.00 100 1016.3
20260830103521 71 0 0.0 0.0 0.00 0.02 0.00 100 1016.3
20260830103037 71 0 0.0 0.0 0.00 0.02 0.00 100 1016.3
20260830102519 71 0 0.0 0.0 0.00 0.02 0.00 100 1016.3
20260830102027 71 0 0.0 0.0 0.00 0.02 0.00 100 1016.3
20260830101756 72 0 0.0 0.0 0.00 0.02 0.00 100 1016.2
20260830095519 71 0 0.0 0.0 0.00 0.02 0.00 100 1016.0
20260830095017 71 0 0.0 0.0 0.00 0.02 0.00 100 1015.9
20260830094542 71 0 0.0 0.0 0.00 0.02 0.00 100 1015.9
20260830094021 71 0 0.0 0.0 0.00 0.02 0.00 100 1016.0
20260830093521 71 0 0.0 0.0 0.00 0.02 0.00 100 1015.9
20260830093039 72 0 0.0 0.0 0.00 0.02 0.00 100 1015.9
20260830092520 71 0 0.0 0.0 0.00 0.02 0.00 100 1015.9
20260830092019 71 0 0.0 0.0 0.00 0.02 0.00 100 1015.8
20260830091541 72 0 0.0 0.0 0.00 0.02 0.00 100 1015.9
20260830091021 72 0 0.0 0.0 0.00 0.02 0.00 100 1015.9
20260830090521 72 0 0.0 0.0 0.00 0.02 0.00 100 1016.0
20260830090040 72 0 0.0 0.0 0.00 0.02 0.00 100 1016.1
20260830085525 72 0 0.0 0.0 0.00 0.02 0.00 100 1016.2
20260830085025 71 0 0.0 0.0 0.00 0.02 0.00 100 1016.3
20260830084544 71 0 0.0 0.0 0.00 0.02 0.00 100 1016.3
20260830084019 72 0 0.0 0.0 0.00 0.02 0.00 100 1016.3
20260830083519 72 0 0.0 0.0 0.00 0.02 0.00 100 1016.3
20260830083055 72 0 0.0 0.0 0.00 0.02 0.00 100 1016.3
20260830082519 72 0 0.0 0.0 0.00 0.02 0.00 100 1016.3
20260830082020 72 0 0.0 0.0 0.00 0.02 0.00 100 1016.4
20260830081542 72 0 0.0 0.0 0.00 0.02 0.00 100 1016.5
20260830081021 72 0 0.0 0.0 0.00 0.02 0.00 100 1016.4
20260830080521 72 0 0.0 0.0 0.00 0.02 0.00 100 1016.5
20260830080042 72 0 0.0 0.0 0.00 0.02 0.00 100 1016.5
20260830075520 72 0 0.0 0.0 0.00 0.02 0.00 100 1016.5
20260830075020 72 0 0.0 0.0 0.00 0.02 0.00 100 1016.7
20260830074542 72 0 0.0 0.0 0.00 0.02 0.00 100 1016.6
20260830074019 72 0 0.0 0.0 0.00 0.02 0.00 100 1016.8
20260830073516 73 0 0.0 0.0 0.00 0.02 0.00 100 1016.7
20260830073041 73 0 0.0 0.0 0.00 0.02 0.00 100 1016.7
20260830072520 73 0 0.0 0.0 0.00 0.02 0.00 100 1016.7
20260830072020 73 0 0.0 0.0 0.00 0.02 0.00 100 1016.8
20260830071541 73 0 0.0 0.0 0.00 0.02 0.00 100 1016.8
20260830071021 72 0 0.0 0.0 0.00 0.02 0.00 100 1016.6
20260830070522 72 0 0.0 0.0 0.00 0.02 0.00 100 1016.7
20260830070104 72 0 0.0 0.0 0.00 0.02 0.00 100 1016.7
20260830065521 72 0 0.0 0.0 0.00 0.02 0.00 100 1016.7
20260830065021 72 0 0.0 0.0 0.00 0.02 0.00 100 1016.7
20260830064541 73 0 0.0 0.0 0.00 0.02 0.00 100 1016.5
20260830064020 73 0 0.0 0.0 0.00 0.02 0.00 100 1016.5
20260830063520 73 0 0.0 0.0 0.00 0.02 0.00 100 1016.6
20260830063041 73 0 0.0 0.0 0.00 0.02 0.00 100 1016.6
20260830062520 73 0 0.0 0.0 0.00 0.02 0.00 100 1016.5
20260830062022 73 0 0.0 0.0 0.00 0.02 0.00 100 1016.7
20260830061540 73 0 0.0 0.0 0.00 0.02 0.00 100 1016.8
20260830061021 73 0 0.0 0.0 0.00 0.02 0.00 100 1016.9
20260830060519 73 0 0.0 0.0 0.00 0.02 0.00 100 1016.9
20260830060050 73 0 0.0 0.0 0.00 0.02 0.00 100 1016.9
20260830055525 73 0 0.0 0.0 0.00 0.02 0.00 100 1016.9
20260830055021 73 0 0.0 0.0 0.00 0.02 0.00 100 1016.8
20260830054541 73 0 0.0 0.0 0.00 0.02 0.00 100 1016.8
20260830054020 73 0 0.0 0.0 0.00 0.02 0.00 100 1016.8
20260830053519 73 0 0.0 0.0 0.00 0.02 0.00 100 1016.8
20260830053042 73 0 0.0 0.0 0.00 0.02 0.00 100 1016.7
20260830052518 73 0 0.0 0.0 0.00 0.02 0.00 100 1016.7
20260830052024 73 0 0.0 0.0 0.00 0.02 0.00 100 1016.7
20260830051545 74 0 0.0 0.0 0.00 0.02 0.00 100 1016.4
20260830051021 74 0 0.0 0.0 0.00 0.02 0.00 100 1016.3
20260830050519 74 0 0.0 0.0 0.00 0.02 0.00 100 1016.4
20260830050041 74 0 0.0 0.0 0.00 0.02 0.00 100 1016.3
20260830045519 74 0 0.0 0.0 0.00 0.02 0.00 100 1016.5
20260830045021 74 0 0.0 0.0 0.00 0.02 0.00 100 1016.5
20260830044542 74 0 0.0 0.0 0.00 0.02 0.00 100 1016.5
20260830044019 74 0 0.0 0.0 0.00 0.02 0.00 100 1016.5
20260830043519 74 0 0.0 0.0 0.00 0.02 0.00 100 1016.5
20260830043039 74 0 0.0 0.0 0.00 0.02 0.00 100 1016.4
20260830042522 74 0 0.0 0.0 0.00 0.02 0.00 100 1016.4
20260830042021 74 0 0.0 0.0 0.00 0.02 0.00 100 1016.4
20260830041553 74 0 0.0 0.0 0.00 0.02 0.00 100 1016.4
20260830041023 74 0 0.0 0.0 0.00 0.02 0.00 100 1016.3
20260830040518 74 0 0.0 0.0 0.00 0.02 0.00 100 1016.3
20260830040044 75 0 0.0 0.0 0.00 0.02 0.00 100 1016.3
20260830035519 75 0 0.0 0.0 0.00 0.02 0.02 100 1016.4
20260830035023 75 0 0.0 0.0 0.00 0.02 0.02 100 1016.5
20260830034538 75 0 0.0 0.0 0.00 0.02 0.02 100 1016.4
20260830034020 75 0 0.0 0.0 0.00 0.02 0.02 100 1016.6
20260830033520 75 0 0.0 0.0 0.00 0.02 0.02 100 1016.6